Weather in Medvezh'i Ozera

Russia / Moscow Oblast     55°51′54″N   37°59′12″E
temp.,
°C
wind,
m/s
gust,
m/s
humid.,
%
clouds,
%
prec.,
mm/h
press.,
hPa
HPBL,
m
19 september, sun
sun1900:00+5e41171100 0.0 1024479
03:00+5e41173100 0.0 1024483
06:00+4e51274100 0.0 1023476
09:00+6e61266100 0.0 1023656
12:00+9e61153100 0.0 10221039
15:00+9e61052100 0.0 10221046
18:00+8e61252100 0.0 10201026
21:00+7e61363100 0.7 1020999
20 september, mon
mon2000:00+6e61476100 2.1 1019884
03:00+5ene81787100 6.9 1018754
06:00+5e81890100 2.3 1017816
09:00+5e81791100 5.6 1017879
12:00+4e71594100 2.4 1017995
15:00+5e71493100 3.8 10171024
18:00+5e71493100 0.5 10171064
21:00+5e71493100 1.3 10171002
21 september, tue
tue2100:00+6e61393100 1.7 1016948
03:00+6e61395100 4.8 1015836
06:00+6e51195100 2.2 1014852
09:00+6e51195100 3.3 1014741
12:00+6e51195100 1.6 1014648
15:00+8e51091100 2.0 1014708
18:00+8e51196100 0.1 1013641
21:00+8e51196100 1.1 1014586
22 september, wed
wed2200:00+7e41096100 0.6 1014493
03:00+7ene4896100 3.9 1014400
06:00+6ene3796100 2.8 1014378
09:00+6e3596100 3.6 1015358
12:00+8se2486100 0.1 1016606
15:00+9e347987 0.1 1016607
18:00+8e368796 0.0 1017332
21:00+7e379190 0.0 1018244
23 september, thu
thu2300:00+6ene249450 0.0 1018115
03:00+7ene2595100 0.0 1018165
06:00+7ene2595100 0.0 1017196
09:00+7ene3794100 0.3 1017277
12:00+9ese3690100 0.7 1016465
15:00+11ese3582100 1.3 1015667
18:00+10ese2493100 0.3 1014160
21:00+9s2294100 0.6 101480